Beatrice, NE

8:41 AM CDT on July 26, 2016 (GMT -0500)
Beatrice Municipal

Weather History for KBIE - January, 2013

Change the Weather History Date:

Thursday, January 31, 2013

  Actual Average Record
Temperature  
Mean Temperature 7 °F -  
Max Temperature 18 °F 35 °F 63 °F (1961)
Min Temperature -4 °F 13 °F -11 °F (1950)
Degree Days  
Heating Degree Days 58    
Moisture  
Dew Point 3 °F    
Average Humidity 70    
Maximum Humidity 87    
Minimum Humidity 53    
Precipitation  
Precipitation 0.00 in - - ()
Sea Level Pressure  
Sea Level Pressure 30.20 in    
Wind  
Wind Speed 10 mph (NNW)    
Max Wind Speed 28 mph    
Max Gust Speed 33 mph    
Visibility 9 miles    
Events      
Averages and records for this station are not official NWS values.
T = Trace of Precipitation, MM = Missing Value Source: NWS Daily Summary

Daily Weather History Graph

Daily Weather History Graph

Search for Another Location

Airport or City:

Trip Planner

Search our weather history database for the weather conditions in past years. The results will help you decide how hot, cold, wet, or windy it might be!

Date:

Astronomy

Jan. 31, 2013 Rise Set
Actual Time 7:36 AM CST 5:44 PM CST
Civil Twilight 7:08 AM CST 6:13 PM CST
Nautical Twilight 6:35 AM CST 6:46 PM CST
Astronomical Twilight 6:03 AM CST 7:18 PM CST
Moon 10:49 PM CST (1/31) 9:36 AM CST (1/31)
Length of Visible Light 11h 05m
Length of Day
10h 07m
Waning Gibbous, 79% of the Moon is Illuminated
Jan 31
Waning Gibbous
Feb 3
Last Quarter
Feb 10
New
Feb 17
First Quarter
Feb 25
Full

Hourly Weather History & Observations

Time (CST) Temp. Windchill Dew Point Humidity Pressure Visibility Wind Dir Wind Speed Gust Speed Precip Events Conditions
12:15 AM 16.2 °F 7.6 °F 12.2 °F 84% 29.93 in 10.0 mi North 5.8 mph - N/A   Overcast
12:35 AM 15.3 °F - 11.7 °F 86% 29.93 in 10.0 mi Calm Calm - N/A   Mostly Cloudy
12:55 AM 16.0 °F - 12.4 °F 86% 29.93 in 10.0 mi Calm Calm - N/A   Overcast
1:15 AM 15.8 °F 10.2 °F 12.2 °F 86% 29.93 in 10.0 mi North 3.5 mph - N/A   Mostly Cloudy
1:35 AM 14.5 °F - 11.3 °F 87% 29.93 in 10.0 mi Calm Calm - N/A   Mostly Cloudy
1:55 AM 17.1 °F 6.6 °F 13.1 °F 84% 29.94 in 10.0 mi North 8.1 mph - N/A   Overcast
2:15 AM 18.7 °F 11.9 °F 13.3 °F 79% 29.94 in 10.0 mi NNE 4.6 mph - N/A   Overcast
2:35 AM 18.9 °F 10.8 °F 12.9 °F 78% 29.95 in 10.0 mi North 5.8 mph - N/A   Overcast
2:55 AM 17.4 °F 9.1 °F 11.7 °F 78% 29.95 in 10.0 mi North 5.8 mph - N/A   Mostly Cloudy
3:15 AM 17.1 °F 6.6 °F 11.3 °F 78% 29.95 in 10.0 mi North 8.1 mph - N/A   Scattered Clouds
3:35 AM 16.9 °F 6.4 °F 11.7 °F 80% 29.96 in 10.0 mi North 8.1 mph - N/A   Mostly Cloudy
3:55 AM 16.7 °F 7.2 °F 11.5 °F 80% 29.97 in 10.0 mi North 6.9 mph - N/A   Mostly Cloudy
4:15 AM 16.5 °F 6.9 °F 11.8 °F 82% 29.97 in 10.0 mi NNW 6.9 mph - N/A   Overcast
4:35 AM 16.7 °F 2.6 °F 11.5 °F 80% 29.98 in 10.0 mi North 13.8 mph - N/A   Overcast
4:55 AM 17.1 °F 3.0 °F 10.4 °F 75% 29.99 in 10.0 mi NNW 13.8 mph - N/A   Overcast
5:15 AM 16.7 °F 6.2 °F 10.4 °F 76% 30.00 in 10.0 mi NNW 8.1 mph - N/A   Overcast
5:35 AM 15.3 °F -0.4 °F 7.2 °F 70% 30.03 in 10.0 mi NNW 16.1 mph - N/A   Mostly Cloudy
5:55 AM 14.0 °F 0.5 °F 6.8 °F 73% 30.04 in 10.0 mi North 11.5 mph - N/A   Mostly Cloudy
6:15 AM 13.5 °F -3.2 °F 5.7 °F 71% 30.04 in 10.0 mi North 17.3 mph 21.9 mph N/A   Scattered Clouds
6:35 AM 14.0 °F 2.0 °F 6.8 °F 73% 30.05 in 10.0 mi North 9.2 mph - N/A   Mostly Cloudy
6:55 AM 13.5 °F 2.2 °F 5.9 °F 72% 30.06 in 10.0 mi NNW 8.1 mph - N/A   Overcast
7:15 AM 13.5 °F 1.3 °F 5.9 °F 72% 30.07 in 10.0 mi NNW 9.2 mph - N/A   Overcast
7:35 AM 12.9 °F -0.2 °F 5.7 °F 73% 30.08 in 10.0 mi NNW 10.4 mph - N/A   Overcast
7:55 AM 12.7 °F 1.4 °F 5.7 °F 74% 30.08 in 10.0 mi NNW 8.1 mph - N/A   Overcast
8:15 AM 12.9 °F -0.2 °F 5.9 °F 74% 30.10 in 10.0 mi NNW 10.4 mph - N/A   Overcast
8:35 AM 13.5 °F -0.9 °F 6.6 °F 74% 30.11 in 10.0 mi NW 12.7 mph - N/A   Overcast
8:55 AM 14.0 °F -0.8 °F 7.0 °F 74% 30.12 in 10.0 mi NNW 13.8 mph - N/A   Overcast
9:15 AM 14.5 °F -2.7 °F 7.2 °F 73% 30.15 in 10.0 mi NNW 19.6 mph 23.0 mph N/A   Overcast
9:35 AM 14.2 °F -5.2 °F 6.4 °F 71% 30.16 in 7.0 mi NNW 25.3 mph - N/A   Overcast
9:55 AM 14.4 °F -3.0 °F 6.8 °F 72% 30.18 in 10.0 mi NNW 19.6 mph 27.6 mph N/A   Overcast
10:15 AM 14.5 °F -4.4 °F 5.7 °F 68% 30.20 in 10.0 mi NNW 24.2 mph 27.6 mph N/A   Overcast
10:35 AM 14.2 °F -4.5 °F 3.9 °F 64% 30.21 in 5.0 mi NNW 23.0 mph 32.2 mph N/A   Haze
10:55 AM 12.9 °F -7.6 °F 2.7 °F 64% 30.24 in 5.0 mi NNW 27.6 mph 33.4 mph N/A   Haze
11:15 AM 13.5 °F -6.2 °F 3.6 °F 65% 30.25 in 7.0 mi NNW 25.3 mph 28.8 mph N/A   Scattered Clouds
11:35 AM 12.6 °F -6.2 °F 2.1 °F 63% 30.26 in 5.0 mi NNW 21.9 mph - N/A   Haze
11:55 AM 12.7 °F -7.9 °F 2.1 °F 63% 30.27 in 3.0 mi NNW 27.6 mph - N/A   Haze
12:15 PM 12.0 °F -8.5 °F 0.9 °F 61% 30.27 in 5.0 mi NW 26.5 mph - N/A   Haze
12:35 PM 12.7 °F -7.5 °F 1.4 °F 61% 30.28 in 5.0 mi NNW 26.5 mph 31.1 mph N/A   Haze
12:55 PM 13.1 °F -6.3 °F 1.4 °F 60% 30.29 in 7.0 mi NNW 24.2 mph 29.9 mph N/A   Clear
1:15 PM 13.1 °F -4.6 °F 1.6 °F 60% 30.29 in 7.0 mi NW 19.6 mph 23.0 mph N/A   Clear
1:35 PM 13.5 °F -5.4 °F 1.0 °F 58% 30.29 in 7.0 mi NNW 23.0 mph - N/A   Clear
1:55 PM 13.5 °F -4.2 °F 0.9 °F 57% 30.29 in 10.0 mi NNW 19.6 mph 25.3 mph N/A   Clear
2:15 PM 13.8 °F -3.2 °F 1.6 °F 58% 30.29 in 10.0 mi NNW 18.4 mph 23.0 mph N/A   Clear
2:35 PM 14.0 °F -3.9 °F 1.2 °F 57% 30.30 in 10.0 mi NNW 20.7 mph - N/A   Clear
2:55 PM 14.4 °F -2.5 °F 1.6 °F 57% 30.30 in 10.0 mi NNW 18.4 mph 23.0 mph N/A   Clear
3:15 PM 14.4 °F -2.5 °F 1.2 °F 56% 30.30 in 10.0 mi NNW 18.4 mph - N/A   Clear
3:35 PM 14.2 °F -2.3 °F 0.9 °F 56% 30.31 in 10.0 mi NNW 17.3 mph - N/A   Clear
3:55 PM 14.2 °F -2.7 °F 0.3 °F 54% 30.32 in 10.0 mi NNW 18.4 mph 24.2 mph N/A   Clear
4:15 PM 14.0 °F -2.5 °F -0.4 °F 53% 30.32 in 10.0 mi NNW 17.3 mph 20.7 mph N/A   Clear
4:35 PM 13.6 °F -1.3 °F -0.8 °F 53% 30.33 in 10.0 mi NNW 13.8 mph - N/A   Clear
4:55 PM 12.9 °F -2.2 °F -1.5 °F 53% 30.33 in 10.0 mi NNW 13.8 mph - N/A   Clear
5:15 PM 11.8 °F -2.3 °F -1.3 °F 56% 30.33 in 10.0 mi NNW 11.5 mph - N/A   Clear
5:35 PM 10.4 °F -2.4 °F -1.7 °F 58% 30.33 in 10.0 mi NNW 9.2 mph - N/A   Clear
5:55 PM 8.4 °F -2.8 °F -2.7 °F 61% 30.34 in 10.0 mi NNW 6.9 mph - N/A   Clear
6:15 PM 5.5 °F -8.4 °F -3.6 °F 66% 30.34 in 10.0 mi North 9.2 mph - N/A   Clear
6:35 PM 4.6 °F -6.0 °F -4.5 °F 66% 30.34 in 10.0 mi NNW 5.8 mph - N/A   Clear
6:55 PM 3.6 °F -5.7 °F -5.1 °F 67% 30.35 in 10.0 mi NNW 4.6 mph - N/A   Clear
7:15 PM 1.9 °F -5.6 °F -6.2 °F 69% 30.36 in 10.0 mi NW 3.5 mph - N/A   Clear
7:35 PM 3.7 °F -5.5 °F -5.6 °F 65% 30.36 in 10.0 mi NW 4.6 mph - N/A   Clear
7:55 PM 2.3 °F -5.2 °F -5.1 °F 71% 30.37 in 10.0 mi NW 3.5 mph - N/A   Clear
8:15 PM 0.5 °F -7.3 °F -7.1 °F 70% 30.37 in 10.0 mi NW 3.5 mph - N/A   Clear
8:35 PM 3.7 °F -7.1 °F -6.0 °F 64% 30.37 in 10.0 mi NW 5.8 mph - N/A   Clear
8:55 PM 2.5 °F - -6.0 °F 68% 30.38 in 10.0 mi Calm Calm - N/A   Clear
9:15 PM -0.4 °F -12.0 °F -7.4 °F 72% 30.40 in 10.0 mi WSW 5.8 mph - N/A   Clear
9:35 PM -0.4 °F -8.3 °F -6.0 °F 77% 30.41 in 10.0 mi WNW 3.5 mph - N/A   Clear
9:55 PM -0.4 °F -12.0 °F -6.9 °F 74% 30.42 in 10.0 mi NW 5.8 mph - N/A   Clear
10:15 PM -4.2 °F -12.6 °F -9.8 °F 77% 30.42 in 10.0 mi West 3.5 mph - N/A   Clear
10:35 PM -2.7 °F - -8.5 °F 76% 30.42 in 10.0 mi Calm Calm - N/A   Clear
10:55 PM -0.2 °F -8.1 °F -5.8 °F 77% 30.42 in 10.0 mi WSW 3.5 mph - N/A   Clear
11:15 PM 0.1 °F -11.4 °F -6.5 °F 74% 30.42 in 10.0 mi WSW 5.8 mph - N/A   Scattered Clouds
11:35 PM 1.2 °F -8.5 °F -5.4 °F 74% 30.42 in 10.0 mi SW 4.6 mph - N/A   Overcast
11:55 PM 1.4 °F - -4.0 °F 78% 30.43 in 10.0 mi Calm Calm - N/A   Overcast